Regional Weather Roundup
Issued by NWS

Home | Current Version | Previous Version | Text Only | Print | Product List | Glossary Off
Versions: 1 2 3 4 5 6 7 8 9 10 11 12 13 14 15 16 17 18 19 20 21 22 23 24 25 26 27 28 29 30 31 32 33 34 35 36 37 38 39 40 41 42 43 44 45 46 47 48 49 50

236
ASUS44 KJAN 231310
RWRMS

MISSISSIPPI HOURLY WEATHER ROUNDUP
NATIONAL WEATHER SERVICE JACKSON MS
800 AM CDT THU OCT 23 2014

NOTE: "FAIR: INDICATES FEW OR NO CLOUDS BELOW 12,000 FEET WITH NO
SIGNIFICANT WEATHER AND/OR OBSTRUCTIONS TO VISIBILITY.

MSZ001>002-007>008-010>013-018>021-025>028-034>036-231400-
NORTHWEST MISSISSIPPI

CITY           SKY/WX    TMP DP  RH WIND       PRES   REMARKS
CLARKSDALE     FAIR      46  46 100 NE5       30.20F
CLEVELAND      FAIR      47  46  97 NE3       30.17F
GREENWOOD      PTCLDY    44  42  93 CALM      30.18
GREENVILLE     MOCLDY    49  45  86 NE6       30.17S
GRENADA          N/A    N/A N/A N/A MISG        N/A
OLIVE BRANCH   MOCLDY    43  43 100 CALM      30.21R
OXFORD         FAIR      39  39 100 CALM      30.21R
TUNICA         MOSUNNY   43  41  93 CALM      30.21R
$$

MSZ003>006-009-014>017-022>024-029>033-037>039-231400-
NORTHEAST MISSISSIPPI

CITY           SKY/WX    TMP DP  RH WIND       PRES   REMARKS
COLUMBUS AFB   MOSUNNY   42  42  99 CALM      30.18R FOG
CORINTH        FAIR      37  37 100 W5        30.18R FOG     WCI  34
GOLDN TRIANGLE MOSUNNY   39  36  87 NW6       30.17R WCI  35
STARKVILLE     FAIR      43  41  93 CALM      30.18R
TUPELO         CLEAR     44  41  89 NE7       30.17R
$$

MSZ040-058-231400-
CENTRAL MISSISSIPPI

CITY           SKY/WX    TMP DP  RH WIND       PRES   REMARKS
JACKSON INTL   PTCLDY    49  45  86 CALM      30.16R
JACKSON HAWKNS PTCLDY    48  44  86 CALM      30.16R
MERIDIAN KEY   SUNNY     44  42  93 CALM      30.17R
MERIDIAN NAS   MOSUNNY   43  41  93 W6        30.17R
RAYMOND        FAIR      45  39  81 CALM      30.17R
VICKSBURG      MOCLDY    50  47  89 NE5       30.17R
$$

MSZ059>079-231400-
SOUTH MISSISSIPPI

CITY           SKY/WX    TMP DP  RH WIND       PRES   REMARKS
BROOKHAVEN     FAIR      45  45 100 CALM      30.16R
COLUMBIA         N/A    N/A N/A N/A MISG        N/A
HATTIESBURG    SUNNY     46  44  93 NW3       30.15R
MCCOMB         CLEAR     50  44  80 N6        30.13R
NATCHEZ        CLEAR     46  43  87 NE3       30.14R
PINE BELT      SUNNY     48  43  81 NE6       30.14S
$$

MSZ080>082-231400-
COASTAL MISSISSIPPI

CITY           SKY/WX    TMP DP  RH WIND       PRES   REMARKS
BAY ST LOUIS   SUNNY     52  43  71 VRB5      30.11R
BILOXI         SUNNY     52  45  77 NE9       30.10R
PASCAGOULA     SUNNY     49  45  86 N6        30.10R
GULFPORT       SUNNY     52  44  74 NE6       30.10R
$$



USA.gov is the U.S. government's official web portal to all federal, state and local government web resources and services.